This is the latest recevied weather packets stored in our database for station/object EB1TK-13. If no packets are shown the sender has not sent any weather packets the latest 10 day(s).
| Time | Temp. | Humidity | Pressure | Rain* | Wind** | Luminosity | Snow |
|---|---|---|---|---|---|---|---|
| 1777521736 | 14.44° C | 96% | 1012.2 hPa | 0 mm | - | - | - |
| 1777521136 | 14.44° C | 96% | 1012 hPa | 0 mm | - | - | - |
| 1777520536 | 14.44° C | 95% | 1011.9 hPa | 0 mm | - | - | - |
| 1777519937 | 14.44° C | 95% | 1011.8 hPa | 0 mm | - | - | - |
| 1777519337 | 14.44° C | 95% | 1011.8 hPa | 0 mm | - | - | - |
| 1777518735 | 15° C | 95% | 1011.7 hPa | 0 mm | - | - | - |
| 1777518135 | 15° C | 95% | 1011.7 hPa | 0 mm | - | - | - |
| 1777517536 | 15° C | 94% | 1011.6 hPa | 0 mm | - | - | - |
| 1777516936 | 15° C | 94% | 1011.4 hPa | 0 mm | - | - | - |
| 1777516337 | 15° C | 94% | 1011.4 hPa | 0 mm | - | - | - |
| 1777515737 | 15.56° C | 94% | 1011.4 hPa | 0 mm | - | - | - |
| 1777515135 | 15.56° C | 95% | 1011.4 hPa | 0 mm | - | - | - |
| 1777514535 | 15.56° C | 95% | 1011.3 hPa | 0 mm | - | - | - |
| 1777513936 | 15° C | 96% | 1011.2 hPa | 0 mm | - | - | - |
| 1777513336 | 14.44° C | 97% | 1011.2 hPa | 0 mm | - | - | - |
| 1777512736 | 14.44° C | 96% | 1011.1 hPa | 0 mm | - | - | - |
| 1777512137 | 14.44° C | 96% | 1010.9 hPa | 0 mm | - | - | - |
| 1777511537 | 14.44° C | 96% | 1011 hPa | 0 mm | - | - | - |
| 1777510935 | 14.44° C | 96% | 1010.9 hPa | 0 mm | - | - | - |
| 1777509736 | 15° C | 97% | 1010.6 hPa | 0 mm | - | - | - |
| 1777509136 | 14.44° C | 97% | 1010.6 hPa | 0 mm | - | - | - |
| 1777508536 | 13.89° C | 97% | 1010.7 hPa | 0 mm | - | - | - |
| 1777507937 | 13.33° C | 96% | 1010.6 hPa | 0 mm | - | - | - |
| 1777506735 | 14.44° C | 97% | 1010 hPa | 0 mm | - | - | - |
| 1777505536 | 13.33° C | 96% | 1009.8 hPa | 0 mm | - | - | - |
* Rain latest hour (hover to see other rain measurements)
** Current wind speed in m/s (hover to see current wind gust speed)